Cardak, Turkey

11:21 PM +03 on April 23, 2017 (GMT +0300)
Cardak Air Base

Weather History for LTAY - October, 2012

Change the Weather History Date:

Monday, October 29, 2012

  Actual Average Record
Temperature  
Mean Temperature 66 °F -  
Max Temperature 73 °F - - ()
Min Temperature 59 °F - - ()
Cooling Degree Days 1    
Growing Degree Days 16 (Base 50)    
Moisture  
Dew Point 47 °F    
Average Humidity 56    
Maximum Humidity 68    
Minimum Humidity 33    
Precipitation  
Precipitation 0.00 in - - ()
Sea Level Pressure  
Sea Level Pressure 30.00 in    
Wind  
Wind Speed 12 mph ()    
Max Wind Speed 17 mph    
Max Gust Speed 25 mph    
Visibility 6.2 miles    
Events      
T = Trace of Precipitation, MM = Missing Value Source: Averaged Metar Reports

Daily Weather History Graph

Daily Weather History Graph

Search for Another Location

Airport or City:

Trip Planner

Search our weather history database for the weather conditions in past years. The results will help you decide how hot, cold, wet, or windy it might be!

Date:

Astronomy

Oct. 29, 2012 Rise Set
Actual Time 6:23 AM EET 5:05 PM EET
Civil Twilight 5:56 AM EET 5:32 PM EET
Nautical Twilight 5:25 AM EET 6:03 PM EET
Astronomical Twilight 4:55 AM EET 6:34 PM EET
Moon 4:46 PM EET (10/29) 5:54 AM EET (10/29)
Length of Visible Light 11h 36m
Length of Day
10h 42m
Full, 100% of the Moon is Illuminated
Oct 29
Full
Oct 29
Full
Nov 7
Last Quarter
Nov 14
New
Nov 20
First Quarter

Hourly Weather History & Observations

Time (EET) Temp. Dew Point Humidity Pressure Visibility Wind Dir Wind Speed Gust Speed Precip Events Conditions
12:50 AM 59.0 °F 48.2 °F 67% 30.09 in - SSE 12.7 mph - N/A   Clear
1:50 AM 59.0 °F 48.2 °F 67% 30.09 in - South 8.1 mph - N/A   Clear
2:50 AM 59.0 °F 48.2 °F 67% 30.06 in - SSE 8.1 mph - N/A   Clear
3:50 AM 59.0 °F 48.2 °F 67% 30.06 in - SSE 15.0 mph - N/A   Clear
4:50 AM 59.0 °F 48.2 °F 67% 30.04 in - SSE 15.0 mph - N/A   Clear
5:50 AM 59.0 °F 48.2 °F 67% 30.04 in - South 15.0 mph - N/A   Clear
6:50 AM 59.0 °F 48.2 °F 67% 30.04 in - SSE 15.0 mph - N/A   Clear
7:50 AM 60.8 °F 48.2 °F 63% 30.06 in - South 17.3 mph - N/A   Clear
8:50 AM 62.6 °F 48.2 °F 59% 30.06 in - South 17.3 mph - N/A   Clear
9:50 AM 66.2 °F 46.4 °F 49% 30.06 in 6.2 mi SSE 13.8 mph 25.3 mph N/A   Mostly Cloudy
10:50 AM 69.8 °F 46.4 °F 43% 30.04 in 6.2 mi SSE 16.1 mph - N/A   Mostly Cloudy
11:50 AM 71.6 °F 46.4 °F 41% 30.01 in 6.2 mi SSE 15.0 mph - N/A   Mostly Cloudy
12:50 PM 73.4 °F 42.8 °F 33% 29.98 in 6.2 mi SSE 12.7 mph - N/A   Mostly Cloudy
1:50 PM 73.4 °F 42.8 °F 33% 29.98 in 6.2 mi SSE 12.7 mph - N/A   Scattered Clouds
2:50 PM 71.6 °F 44.6 °F 38% 29.95 in 6.2 mi SSE 12.7 mph - N/A   Mostly Cloudy
3:50 PM 69.8 °F 46.4 °F 43% 29.95 in 6.2 mi SSE 12.7 mph - N/A   Mostly Cloudy
4:50 PM 68.0 °F 48.2 °F 49% 29.95 in 6.2 mi SSE 10.4 mph - N/A   Mostly Cloudy
5:50 PM 64.4 °F 48.2 °F 56% 29.95 in 6.2 mi SSE 13.8 mph - N/A   Mostly Cloudy
6:50 PM 64.4 °F 48.2 °F 56% 29.95 in 6.2 mi SSE 15.0 mph - N/A   Mostly Cloudy
7:50 PM 62.6 °F 48.2 °F 59% 29.95 in 6.2 mi SSE 15.0 mph - N/A   Mostly Cloudy
8:50 PM 60.8 °F 48.2 °F 63% 29.95 in 6.2 mi SE 16.1 mph - N/A   Mostly Cloudy
9:50 PM 60.8 °F 48.2 °F 63% 29.95 in 6.2 mi SSE 10.4 mph - N/A   Mostly Cloudy
10:50 PM 60.8 °F 48.2 °F 63% 29.95 in 6.2 mi SSE 11.5 mph - N/A   Mostly Cloudy
11:50 PM 60.8 °F 50.0 °F 68% 29.95 in 6.2 mi SE 16.1 mph - N/A   Mostly Cloudy